Back to catalog

STARLINK-34643

AliveCommunicationsVLEO
NORAD 64923·PAYLOAD·🇺🇸 United States

Launched Jul 26, 2025 from Cape Canaveral Space Force Station

Loading…

Next Passes (next 24 hours)

TLE

FreshSource: CelesTrak SupGP

Epoch: Sep 14, 2026, 15:23 UTC

1 64923C 25157V   26257.64145833  .00062267  00000+0  18400-2 0  2574
2 64923  53.1569 184.9829 0001213 106.0427 330.0037 15.34354795    16

Track STARLINK-34643 in real time with AllMySat

Download on the App Store